Time,TemperatureF,DewpointF,PressureIn,WindDirection,WindDirectionDegrees,WindSpeedMPH,WindSpeedGustMPH,Humidity,HourlyPrecipIn,Conditions,Clouds,dailyrainin,SoftwareType,DateUTC
2013-02-17 00:02:00,22.0,16.0,30.10,SE,126,3.0,7.0,79,0.00,,,0.00,,2013-02-17 06:02:00,
2013-02-17 00:11:00,22.0,16.0,30.10,SE,126,3.0,7.0,79,0.00,,,0.00,,2013-02-17 06:11:00,
2013-02-17 00:21:00,21.0,16.0,30.10,SE,130,4.0,8.0,79,0.00,,,0.00,,2013-02-17 06:21:00,
2013-02-17 00:31:00,21.0,16.0,30.10,ESE,116,5.0,8.0,80,0.00,,,0.00,,2013-02-17 06:31:00,
2013-02-17 00:41:00,21.0,16.0,30.10,ESE,116,5.0,8.0,80,0.00,,,0.00,,2013-02-17 06:41:00,
2013-02-17 00:51:00,21.0,16.0,30.10,SE,124,5.0,8.0,80,0.00,,,0.00,,2013-02-17 06:51:00,
2013-02-17 01:01:00,21.0,16.0,30.10,ESE,123,4.0,8.0,80,0.00,,,0.00,,2013-02-17 07:01:00,
2013-02-17 01:11:00,21.0,16.0,30.10,ESE,110,4.0,8.0,81,0.00,,,0.00,,2013-02-17 07:11:00,
2013-02-17 01:21:00,21.0,16.0,30.10,ESE,110,4.0,8.0,81,0.00,,,0.00,,2013-02-17 07:21:00,
2013-02-17 01:31:00,21.0,16.0,30.10,ESE,113,4.0,8.0,81,0.00,,,0.00,,2013-02-17 07:31:00,
2013-02-17 01:41:00,21.0,16.0,30.10,ESE,113,4.0,8.0,81,0.00,,,0.00,,2013-02-17 07:41:00,
2013-02-17 01:52:00,20.0,15.0,30.09,ESE,119,6.0,10.0,81,0.00,,,0.00,,2013-02-17 07:52:00,
2013-02-17 02:01:00,20.0,15.0,30.09,ESE,112,6.0,11.0,81,0.00,,,0.00,,2013-02-17 08:01:00,
2013-02-17 02:11:00,20.0,15.0,30.09,ESE,112,6.0,11.0,81,0.00,,,0.00,,2013-02-17 08:11:00,
2013-02-17 02:21:00,20.0,15.0,30.09,ESE,110,7.0,12.0,81,0.00,,,0.00,,2013-02-17 08:21:00,
2013-02-17 02:31:00,20.0,15.0,30.09,ESE,112,8.0,11.0,81,0.00,,,0.00,,2013-02-17 08:31:00,
2013-02-17 02:42:00,20.0,15.0,30.09,ESE,112,8.0,11.0,81,0.00,,,0.00,,2013-02-17 08:42:00,
2013-02-17 02:52:00,20.0,15.0,30.09,ESE,112,7.0,12.0,81,0.00,,,0.00,,2013-02-17 08:52:00,
2013-02-17 03:01:00,20.0,15.0,30.09,ESE,115,7.0,11.0,81,0.00,,,0.00,,2013-02-17 09:01:00,
2013-02-17 03:11:00,20.0,15.0,30.09,ESE,115,7.0,11.0,81,0.00,,,0.00,,2013-02-17 09:11:00,
2013-02-17 03:21:00,20.0,15.0,30.09,ESE,116,6.0,10.0,81,0.00,,,0.00,,2013-02-17 09:21:00,
2013-02-17 03:31:00,19.0,14.0,30.10,ESE,114,5.0,8.0,81,0.00,,,0.00,,2013-02-17 09:31:00,
2013-02-17 03:41:00,19.0,14.0,30.10,ESE,114,5.0,8.0,81,0.00,,,0.00,,2013-02-17 09:41:00,
2013-02-17 03:52:00,19.0,14.0,30.09,ESE,118,5.0,11.0,81,0.00,,,0.00,,2013-02-17 09:52:00,
2013-02-17 04:01:00,19.0,14.0,30.09,ESE,120,7.0,12.0,82,0.00,,,0.00,,2013-02-17 10:01:00,
2013-02-17 04:11:00,19.0,14.0,30.09,ESE,120,7.0,12.0,82,0.00,,,0.00,,2013-02-17 10:11:00,
2013-02-17 04:21:00,19.0,14.0,30.09,ESE,119,6.0,12.0,82,0.00,,,0.00,,2013-02-17 10:21:00,
2013-02-17 04:31:00,19.0,14.0,30.09,ESE,118,6.0,10.0,82,0.00,,,0.00,,2013-02-17 10:31:00,
2013-02-17 04:41:00,19.0,14.0,30.09,ESE,118,6.0,10.0,82,0.00,,,0.00,,2013-02-17 10:41:00,
2013-02-17 04:52:00,19.0,14.0,30.08,ESE,120,7.0,11.0,82,0.00,,,0.00,,2013-02-17 10:52:00,
2013-02-17 05:01:00,19.0,14.0,30.08,ESE,123,7.0,12.0,82,0.00,,,0.00,,2013-02-17 11:01:00,
2013-02-17 05:11:00,19.0,14.0,30.08,ESE,123,7.0,12.0,82,0.00,,,0.00,,2013-02-17 11:11:00,
2013-02-17 05:21:00,19.0,14.0,30.08,ESE,111,7.0,12.0,82,0.00,,,0.00,,2013-02-17 11:21:00,
2013-02-17 05:32:00,19.0,14.0,30.07,ESE,117,7.0,11.0,82,0.00,,,0.00,,2013-02-17 11:32:00,
2013-02-17 05:42:00,19.0,14.0,30.07,ESE,117,7.0,11.0,82,0.00,,,0.00,,2013-02-17 11:42:00,
2013-02-17 05:52:00,19.0,14.0,30.07,ESE,115,6.0,11.0,82,0.00,,,0.00,,2013-02-17 11:52:00,
2013-02-17 06:03:00,19.0,14.0,30.07,ESE,117,7.0,11.0,82,0.00,,,0.00,,2013-02-17 12:03:00,
2013-02-17 06:11:00,19.0,14.0,30.07,ESE,117,7.0,11.0,82,0.00,,,0.00,,2013-02-17 12:11:00,
2013-02-17 06:22:00,19.0,14.0,30.07,ESE,120,8.0,12.0,82,0.00,,,0.00,,2013-02-17 12:22:00,
2013-02-17 06:32:00,19.0,15.0,30.07,ESE,117,7.0,10.0,83,0.00,,,0.00,,2013-02-17 12:32:00,
2013-02-17 06:42:00,19.0,15.0,30.07,ESE,117,7.0,10.0,83,0.00,,,0.00,,2013-02-17 12:42:00,
2013-02-17 06:52:00,19.0,15.0,30.07,ESE,117,8.0,13.0,83,0.00,,,0.00,,2013-02-17 12:52:00,
2013-02-17 07:02:00,19.0,15.0,30.06,ESE,122,6.0,11.0,83,0.00,,,0.00,,2013-02-17 13:02:00,
2013-02-17 07:12:00,19.0,15.0,30.06,ESE,122,6.0,11.0,83,0.00,,,0.00,,2013-02-17 13:12:00,
2013-02-17 07:21:00,19.0,15.0,30.06,ESE,119,7.0,12.0,83,0.00,,,0.00,,2013-02-17 13:21:00,
2013-02-17 07:32:00,18.0,14.0,30.05,ESE,114,7.0,11.0,84,0.00,,,0.00,,2013-02-17 13:32:00,
2013-02-17 07:41:00,18.0,14.0,30.05,ESE,114,7.0,11.0,84,0.00,,,0.00,,2013-02-17 13:41:00,
2013-02-17 07:51:00,19.0,15.0,30.05,ESE,119,7.0,12.0,84,0.00,,,0.00,,2013-02-17 13:51:00,
2013-02-17 08:01:00,19.0,15.0,30.05,ESE,120,6.0,13.0,84,0.00,,,0.00,,2013-02-17 14:01:00,
2013-02-17 08:11:00,19.0,15.0,30.05,ESE,120,6.0,13.0,84,0.00,,,0.00,,2013-02-17 14:11:00,
2013-02-17 08:21:00,19.0,15.0,30.05,ESE,112,7.0,12.0,84,0.00,,,0.00,,2013-02-17 14:21:00,
2013-02-17 08:32:00,20.0,15.0,30.05,ESE,117,8.0,14.0,82,0.00,,,0.00,,2013-02-17 14:32:00,
2013-02-17 08:42:00,20.0,15.0,30.05,ESE,117,8.0,14.0,82,0.00,,,0.00,,2013-02-17 14:42:00,
2013-02-17 08:52:00,21.0,16.0,30.04,ESE,118,6.0,13.0,82,0.00,,,0.00,,2013-02-17 14:52:00,
2013-02-17 09:02:00,22.0,17.0,30.05,SE,126,7.0,13.0,81,0.00,,,0.00,,2013-02-17 15:02:00,
2013-02-17 09:11:00,22.0,17.0,30.05,SE,126,7.0,13.0,81,0.00,,,0.00,,2013-02-17 15:11:00,
2013-02-17 09:21:00,23.0,18.0,30.04,SE,134,7.0,12.0,80,0.00,,,0.00,,2013-02-17 15:21:00,
2013-02-17 09:31:00,24.0,18.0,30.05,ESE,115,8.0,13.0,79,0.00,,,0.00,,2013-02-17 15:31:00,
2013-02-17 09:41:00,24.0,18.0,30.05,ESE,115,8.0,13.0,79,0.00,,,0.00,,2013-02-17 15:41:00,
2013-02-17 09:52:00,26.0,20.0,30.04,SE,136,7.0,15.0,77,0.00,,,0.00,,2013-02-17 15:52:00,
2013-02-17 10:01:00,27.0,20.0,30.04,SE,131,10.0,14.0,76,0.00,,,0.00,,2013-02-17 16:01:00,
2013-02-17 10:11:00,27.0,20.0,30.04,SE,131,10.0,14.0,76,0.00,,,0.00,,2013-02-17 16:11:00,
2013-02-17 10:21:00,29.0,22.0,30.03,SE,131,8.0,15.0,75,0.00,,,0.00,,2013-02-17 16:21:00,
2013-02-17 10:32:00,30.0,22.0,30.03,SE,125,9.0,18.0,72,0.00,,,0.00,,2013-02-17 16:32:00,
2013-02-17 10:41:00,30.0,22.0,30.03,SE,125,9.0,18.0,72,0.00,,,0.00,,2013-02-17 16:41:00,
2013-02-17 10:52:00,31.0,23.0,30.02,SE,134,10.0,17.0,71,0.00,,,0.00,,2013-02-17 16:52:00,
2013-02-17 11:02:00,32.0,23.0,30.01,ESE,122,11.0,19.0,69,0.00,,,0.00,,2013-02-17 17:02:00,
2013-02-17 11:11:00,32.0,23.0,30.01,ESE,122,11.0,19.0,69,0.00,,,0.00,,2013-02-17 17:11:00,
2013-02-17 11:21:00,33.0,24.0,30.01,SSE,147,8.0,16.0,68,0.00,,,0.00,,2013-02-17 17:21:00,
2013-02-17 11:32:00,34.0,24.0,30.01,ESE,123,10.0,15.0,67,0.00,,,0.00,,2013-02-17 17:32:00,
2013-02-17 11:41:00,34.0,24.0,30.01,ESE,123,10.0,15.0,67,0.00,,,0.00,,2013-02-17 17:41:00,
2013-02-17 11:52:00,35.0,24.0,29.99,SE,125,9.0,17.0,64,0.00,,,0.00,,2013-02-17 17:52:00,
2013-02-17 12:01:00,37.0,25.0,29.98,SE,127,8.0,17.0,62,0.00,,,0.00,,2013-02-17 18:01:00,
2013-02-17 12:11:00,37.0,25.0,29.98,SE,127,8.0,17.0,62,0.00,,,0.00,,2013-02-17 18:11:00,
2013-02-17 12:22:00,38.0,24.0,29.97,ESE,121,12.0,17.0,56,0.00,,,0.00,,2013-02-17 18:22:00,
2013-02-17 12:33:00,38.0,24.0,29.96,ESE,122,10.0,17.0,56,0.00,,,0.00,,2013-02-17 18:33:00,
2013-02-17 12:42:00,38.0,24.0,29.96,ESE,122,10.0,17.0,56,0.00,,,0.00,,2013-02-17 18:42:00,
2013-02-17 12:52:00,39.0,24.0,29.95,SE,129,10.0,19.0,54,0.00,,,0.00,,2013-02-17 18:52:00,
2013-02-17 13:01:00,39.0,23.0,29.94,SE,128,14.0,20.0,52,0.00,,,0.00,,2013-02-17 19:01:00,
2013-02-17 13:11:00,39.0,23.0,29.94,SE,128,14.0,20.0,52,0.00,,,0.00,,2013-02-17 19:11:00,
2013-02-17 13:21:00,40.0,23.0,29.93,ESE,119,12.0,19.0,51,0.00,,,0.00,,2013-02-17 19:21:00,
2013-02-17 13:32:00,40.0,23.0,29.92,ESE,123,13.0,21.0,50,0.00,,,0.00,,2013-02-17 19:32:00,
2013-02-17 13:42:00,40.0,23.0,29.92,ESE,123,13.0,21.0,50,0.00,,,0.00,,2013-02-17 19:42:00,
2013-02-17 13:52:00,41.0,23.0,29.91,SE,127,12.0,20.0,49,0.00,,,0.00,,2013-02-17 19:52:00,
2013-02-17 14:02:00,42.0,24.0,29.90,SE,125,13.0,21.0,49,0.00,,,0.00,,2013-02-17 20:02:00,
2013-02-17 14:11:00,42.0,24.0,29.90,SE,125,13.0,21.0,49,0.00,,,0.00,,2013-02-17 20:11:00,
2013-02-17 14:21:00,42.0,24.0,29.90,SE,133,12.0,21.0,49,0.00,,,0.00,,2013-02-17 20:21:00,
2013-02-17 14:32:00,43.0,25.0,29.89,SE,138,10.0,21.0,49,0.00,,,0.00,,2013-02-17 20:32:00,
2013-02-17 14:42:00,43.0,25.0,29.89,SE,138,10.0,21.0,49,0.00,,,0.00,,2013-02-17 20:42:00,
2013-02-17 14:52:00,43.0,24.0,29.88,SE,132,12.0,18.0,47,0.00,,,0.00,,2013-02-17 20:52:00,
2013-02-17 15:01:00,43.0,25.0,29.87,SE,125,9.0,21.0,49,0.00,,,0.00,,2013-02-17 21:01:00,
2013-02-17 15:11:00,43.0,25.0,29.87,SE,125,9.0,21.0,49,0.00,,,0.00,,2013-02-17 21:11:00,
2013-02-17 15:21:00,43.0,24.0,29.86,SE,130,11.0,24.0,46,0.00,,,0.00,,2013-02-17 21:21:00,
2013-02-17 15:31:00,44.0,25.0,29.86,SE,133,11.0,21.0,47,0.00,,,0.00,,2013-02-17 21:31:00,
2013-02-17 15:41:00,44.0,25.0,29.86,SE,133,11.0,21.0,47,0.00,,,0.00,,2013-02-17 21:41:00,
2013-02-17 15:53:00,44.0,25.0,29.86,SE,133,11.0,21.0,47,0.00,,,0.00,,2013-02-17 21:53:00,
2013-02-17 16:01:00,44.0,25.0,29.85,SE,127,11.0,20.0,46,0.00,,,0.00,,2013-02-17 22:01:00,
2013-02-17 16:12:00,44.0,25.0,29.85,SE,127,11.0,20.0,46,0.00,,,0.00,,2013-02-17 22:12:00,
2013-02-17 16:21:00,44.0,25.0,29.83,SE,131,10.0,20.0,47,0.00,,,0.00,,2013-02-17 22:21:00,
2013-02-17 16:32:00,43.0,24.0,29.83,ESE,120,14.0,18.0,47,0.00,,,0.00,,2013-02-17 22:32:00,
2013-02-17 16:42:00,43.0,24.0,29.83,ESE,120,14.0,18.0,47,0.00,,,0.00,,2013-02-17 22:42:00,
2013-02-17 16:52:00,42.0,25.0,29.83,ESE,121,11.0,19.0,51,0.00,,,0.00,,2013-02-17 22:52:00,
2013-02-17 17:02:00,42.0,26.0,29.83,ESE,122,10.0,17.0,52,0.00,,,0.00,,2013-02-17 23:02:00,
2013-02-17 17:11:00,42.0,26.0,29.83,ESE,122,10.0,17.0,52,0.00,,,0.00,,2013-02-17 23:11:00,
2013-02-17 17:21:00,41.0,25.0,29.82,ESE,121,8.0,18.0,53,0.00,,,0.00,,2013-02-17 23:21:00,
2013-02-17 17:32:00,41.0,26.0,29.80,ESE,123,9.0,15.0,54,0.00,,,0.00,,2013-02-17 23:32:00,
2013-02-17 17:42:00,41.0,26.0,29.80,ESE,123,9.0,15.0,54,0.00,,,0.00,,2013-02-17 23:42:00,
2013-02-17 17:52:00,41.0,26.0,29.80,ESE,123,9.0,15.0,54,0.00,,,0.00,,2013-02-17 23:52:00,
2013-02-17 18:01:00,39.0,25.0,29.80,ESE,123,7.0,15.0,57,0.00,,,0.00,,2013-02-18 00:01:00,
2013-02-17 18:11:00,39.0,25.0,29.80,ESE,123,7.0,15.0,57,0.00,,,0.00,,2013-02-18 00:11:00,
2013-02-17 18:22:00,39.0,25.0,29.80,ESE,120,9.0,13.0,57,0.00,,,0.00,,2013-02-18 00:22:00,
2013-02-17 18:31:00,38.0,25.0,29.80,ESE,122,9.0,14.0,59,0.00,,,0.00,,2013-02-18 00:31:00,
2013-02-17 18:41:00,38.0,25.0,29.80,ESE,122,9.0,14.0,59,0.00,,,0.00,,2013-02-18 00:41:00,
2013-02-17 18:52:00,38.0,25.0,29.80,ESE,122,9.0,15.0,58,0.00,,,0.00,,2013-02-18 00:52:00,
2013-02-17 19:01:00,38.0,25.0,29.80,ESE,122,9.0,13.0,59,0.00,,,0.00,,2013-02-18 01:01:00,
2013-02-17 19:11:00,38.0,25.0,29.80,ESE,122,9.0,13.0,59,0.00,,,0.00,,2013-02-18 01:11:00,
2013-02-17 19:21:00,37.0,25.0,29.79,SE,130,9.0,13.0,61,0.00,,,0.00,,2013-02-18 01:21:00,
2013-02-17 19:31:00,37.0,25.0,29.78,SE,129,11.0,16.0,61,0.00,,,0.00,,2013-02-18 01:31:00,
2013-02-17 19:41:00,37.0,25.0,29.78,SE,129,11.0,16.0,61,0.00,,,0.00,,2013-02-18 01:41:00,
2013-02-17 19:52:00,37.0,24.0,29.78,SE,129,9.0,18.0,60,0.00,,,0.00,,2013-02-18 01:52:00,
2013-02-17 20:01:00,37.0,24.0,29.77,SE,124,10.0,17.0,60,0.00,,,0.00,,2013-02-18 02:01:00,
2013-02-17 20:11:00,37.0,24.0,29.77,SE,124,10.0,17.0,60,0.00,,,0.00,,2013-02-18 02:11:00,
2013-02-17 20:21:00,37.0,24.0,29.76,SE,126,9.0,17.0,60,0.00,,,0.00,,2013-02-18 02:21:00,
2013-02-17 20:32:00,36.0,25.0,29.75,ESE,119,9.0,14.0,63,0.00,,,0.00,,2013-02-18 02:32:00,
2013-02-17 20:41:00,36.0,25.0,29.75,ESE,119,9.0,14.0,63,0.00,,,0.00,,2013-02-18 02:41:00,
2013-02-17 20:52:00,36.0,25.0,29.75,SE,125,8.0,13.0,64,0.00,,,0.00,,2013-02-18 02:52:00,
2013-02-17 21:01:00,35.0,24.0,29.75,ESE,117,7.0,12.0,64,0.00,,,0.00,,2013-02-18 03:01:00,
2013-02-17 21:11:00,35.0,24.0,29.75,ESE,117,7.0,12.0,64,0.00,,,0.00,,2013-02-18 03:11:00,
2013-02-17 21:21:00,36.0,25.0,29.74,SE,127,8.0,14.0,63,0.00,,,0.00,,2013-02-18 03:21:00,
2013-02-17 21:31:00,36.0,24.0,29.74,SE,125,9.0,15.0,62,0.00,,,0.00,,2013-02-18 03:31:00,
2013-02-17 21:42:00,36.0,24.0,29.74,SE,125,9.0,15.0,62,0.00,,,0.00,,2013-02-18 03:42:00,
2013-02-17 21:52:00,36.0,24.0,29.75,SE,125,7.0,13.0,62,0.00,,,0.00,,2013-02-18 03:52:00,
2013-02-17 22:01:00,35.0,24.0,29.75,SE,131,7.0,13.0,63,0.00,,,0.00,,2013-02-18 04:01:00,
2013-02-17 22:11:00,35.0,24.0,29.75,SE,131,7.0,13.0,63,0.00,,,0.00,,2013-02-18 04:11:00,
2013-02-17 22:21:00,35.0,24.0,29.74,SE,127,7.0,12.0,63,0.00,,,0.00,,2013-02-18 04:21:00,
2013-02-17 22:32:00,36.0,24.0,29.72,SE,126,9.0,16.0,62,0.00,,,0.00,,2013-02-18 04:32:00,
2013-02-17 22:41:00,36.0,24.0,29.72,SE,126,9.0,16.0,62,0.00,,,0.00,,2013-02-18 04:41:00,
2013-02-17 22:52:00,36.0,24.0,29.72,SE,129,8.0,14.0,62,0.00,,,0.00,,2013-02-18 04:52:00,
2013-02-17 23:01:00,35.0,24.0,29.71,ESE,121,8.0,17.0,64,0.00,,,0.00,,2013-02-18 05:01:00,
2013-02-17 23:11:00,35.0,24.0,29.71,ESE,121,8.0,17.0,64,0.00,,,0.00,,2013-02-18 05:11:00,
2013-02-17 23:21:00,35.0,24.0,29.71,SE,129,8.0,15.0,64,0.00,,,0.00,,2013-02-18 05:21:00,
2013-02-17 23:31:00,35.0,24.0,29.70,SE,133,8.0,16.0,65,0.00,,,0.00,,2013-02-18 05:31:00,
2013-02-17 23:41:00,35.0,24.0,29.70,SE,133,8.0,16.0,65,0.00,,,0.00,,2013-02-18 05:41:00,
2013-02-17 23:52:00,35.0,24.0,29.69,SE,137,8.0,16.0,65,0.00,,,0.00,,2013-02-18 05:52:00,